,,,PA_Meas_PMT16A,,PR_Meas_QMR101_102,,RH_Meas_QMH101,,SR_Meas_QMS101,,TA_Meas_QMH101,,GenWind,,GenWind,
date,time,status,PA,status,PR,status,RH,status,SR,status,TA,status,DirAvg,status,SpdAvg,
2008-11-03, 00:00:04,VALID,1006.4,VALID,0,VALID,95.5975,VALID,0,VALID,23.1391,VALID,351,VALID,0.346094,
2008-11-03, 00:01:04,VALID,1006.36,VALID,0,VALID,95.6128,VALID,0,VALID,23.1197,VALID,351,VALID,0.376172,
2008-11-03, 00:02:04,VALID,1006.34,VALID,0,VALID,95.7196,VALID,0,VALID,23.1586,VALID,351,VALID,0.328906,
2008-11-03, 00:03:04,VALID,1006.34,VALID,0,VALID,95.7501,VALID,0,VALID,23.178,VALID,351,VALID,0.251563,
2008-11-03, 00:04:04,VALID,1006.3,VALID,0,VALID,95.7577,VALID,0.100563,VALID,23.1763,VALID,351,VALID,0.293359,
2008-11-03, 00:05:04,VALID,1006.31,VALID,0,VALID,95.6356,VALID,0,VALID,23.1975,VALID,351,VALID,0.278516,
2008-11-03, 00:06:04,VALID,1006.29,VALID,0,VALID,95.5212,VALID,0,VALID,23.1391,VALID,351,VALID,0.314844,
2008-11-03, 00:07:04,VALID,1006.3,VALID,0,VALID,95.5288,VALID,0,VALID,23.1002,VALID,351,VALID,0.0566406,
2008-11-03, 00:08:04,VALID,1006.28,VALID,0,VALID,95.5594,VALID,0,VALID,23.1002,VALID,351,VALID,0,
2008-11-03, 00:09:04,VALID,1006.27,VALID,0,VALID,95.6051,VALID,0,VALID,23.1019,VALID,351,VALID,0,
2008-11-03, 00:10:04,VALID,1006.24,VALID,0,VALID,95.6967,VALID,0,VALID,23.1019,VALID,351,VALID,0,
2008-11-03, 00:11:04,VALID,1006.24,VALID,0,VALID,95.6967,VALID,0,VALID,23.1426,VALID,351,VALID,0,
2008-11-03, 00:12:04,VALID,1006.23,VALID,0,VALID,95.773,VALID,0,VALID,23.1214,VALID,351,VALID,0,
2008-11-03, 00:13:04,VALID,1006.2,VALID,0,VALID,95.7348,VALID,0,VALID,23.1409,VALID,351,VALID,0,
2008-11-03, 00:14:04,VALID,1006.21,VALID,0,VALID,95.6967,VALID,0,VALID,23.1214,VALID,351,VALID,0,
2008-11-03, 00:15:04,VALID,1006.17,VALID,0,VALID,95.6585,VALID,0,VALID,23.1019,VALID,351,VALID,0,
2008-11-03, 00:16:04,VALID,1006.13,VALID,0,VALID,95.6509,VALID,0,VALID,23.0807,VALID,351,VALID,0,
2008-11-03, 00:17:04,VALID,1006.11,VALID,0,VALID,95.6967,VALID,0,VALID,23.1019,VALID,351,VALID,0,
2008-11-03, 00:18:04,VALID,1006.11,VALID,0,VALID,95.689,VALID,0,VALID,23.1232,VALID,351,VALID,0,
2008-11-03, 00:19:04,VALID,1006.1,VALID,0,VALID,95.6738,VALID,0,VALID,23.0613,VALID,351,VALID,0,
2008-11-03, 00:20:04,VALID,1006.09,VALID,0,VALID,95.7577,VALID,0,VALID,23.1037,VALID,351,VALID,0,
2008-11-03, 00:21:04,VALID,1006.07,VALID,0,VALID,95.7424,VALID,0,VALID,23.1019,VALID,351,VALID,0,
2008-11-03, 00:22:04,VALID,1006.07,VALID,0,VALID,95.628,VALID,0,VALID,23.0418,VALID,351,VALID,0.119141,
2008-11-03, 00:23:04,VALID,1006.07,VALID,0,VALID,95.6356,VALID,0,VALID,23.0436,VALID,351,VALID,0.296094,
2008-11-03, 00:24:04,VALID,1006.05,VALID,0,VALID,95.5975,VALID,0,VALID,23.0241,VALID,351,VALID,0.283594,
2008-11-03, 00:25:04,VALID,1006.04,VALID,0,VALID,95.6433,VALID,0,VALID,23.0046,VALID,351,VALID,0.354297,
2008-11-03, 00:26:04,VALID,1006.03,VALID,0,VALID,95.7196,VALID,0,VALID,23.0029,VALID,351,VALID,0.134766,
2008-11-03, 00:27:04,VALID,1006,VALID,0,VALID,95.6967,VALID,0,VALID,23.0241,VALID,351,VALID,0.0964844,
2008-11-03, 00:28:04,VALID,1006.01,VALID,0,VALID,95.7043,VALID,0,VALID,23.0046,VALID,351,VALID,0,
2008-11-03, 00:29:04,VALID,1005.98,VALID,0,VALID,95.7043,VALID,0,VALID,23.0046,VALID,351,VALID,0.00585938,
2008-11-03, 00:30:04,VALID,1005.97,VALID,0,VALID,95.7043,VALID,0,VALID,22.9834,VALID,351,VALID,0,
2008-11-03, 00:31:04,VALID,1005.97,VALID,0,VALID,95.6814,VALID,0,VALID,22.9852,VALID,351,VALID,0,
2008-11-03, 00:32:04,VALID,1005.98,VALID,0,VALID,95.7119,VALID,0,VALID,22.9852,VALID,351,VALID,0,
2008-11-03, 00:33:04,VALID,1005.95,VALID,0,VALID,95.7119,VALID,0,VALID,22.9852,VALID,351,VALID,0.0140625,
2008-11-03, 00:34:04,VALID,1005.96,VALID,0,VALID,95.7882,VALID,0,VALID,23.0046,VALID,351,VALID,0.313672,
2008-11-03, 00:35:04,VALID,1005.96,VALID,0,VALID,95.8493,VALID,0,VALID,23.0046,VALID,351,VALID,0.309766,
2008-11-03, 00:36:04,VALID,1005.92,VALID,0,VALID,95.8493,VALID,0,VALID,23.0436,VALID,351,VALID,0.215625,
2008-11-03, 00:37:04,VALID,1005.88,VALID,0,VALID,95.8569,VALID,0,VALID,23.063,VALID,351,VALID,0.236719,
2008-11-03, 00:38:04,VALID,1005.91,VALID,0,VALID,95.8798,VALID,0,VALID,23.0613,VALID,351,VALID,0.295703,
2008-11-03, 00:39:04,VALID,1005.88,VALID,0,VALID,95.8569,VALID,0,VALID,23.0613,VALID,351,VALID,0.328516,
2008-11-03, 00:40:04,VALID,1005.9,VALID,0,VALID,95.8874,VALID,0,VALID,23.1019,VALID,351,VALID,0.278125,
2008-11-03, 00:41:04,VALID,1005.88,VALID,0,VALID,95.9637,VALID,0,VALID,23.1409,VALID,351,VALID,0.202344,
2008-11-03, 00:42:04,VALID,1005.91,VALID,0,VALID,95.895,VALID,0,VALID,23.1603,VALID,351,VALID,0.25625,
2008-11-03, 00:43:04,VALID,1005.88,VALID,0,VALID,95.7806,VALID,0,VALID,23.1214,VALID,351,VALID,0.453125,
2008-11-03, 00:44:04,VALID,1005.86,VALID,0,VALID,95.7424,VALID,0,VALID,23.1214,VALID,351,VALID,0.287109,
2008-11-03, 00:45:04,VALID,1005.86,VALID,0,VALID,95.7424,VALID,0,VALID,23.1019,VALID,351,VALID,0.235156,
2008-11-03, 00:46:04,VALID,1005.84,VALID,0,VALID,95.7653,VALID,0,VALID,23.0825,VALID,351,VALID,0.403516,
2008-11-03, 00:47:04,VALID,1005.84,VALID,0,VALID,95.7959,VALID,0,VALID,23.0825,VALID,351,VALID,0.245312,
2008-11-03, 00:48:04,VALID,1005.84,VALID,0,VALID,95.7043,VALID,0,VALID,23.0436,VALID,351,VALID,0.395312,
2008-11-03, 00:49:04,VALID,1005.8,VALID,0,VALID,95.7348,VALID,0,VALID,23.0436,VALID,351,VALID,0.321094,
2008-11-03, 00:50:04,VALID,1005.8,VALID,0,VALID,95.6967,VALID,0,VALID,23.0241,VALID,351,VALID,0.459766,
2008-11-03, 00:51:04,VALID,1005.78,VALID,0,VALID,95.6509,VALID,0,VALID,23.0046,VALID,351,VALID,0.4625,
2008-11-03, 00:52:04,VALID,1005.76,VALID,0,VALID,95.7119,VALID,0,VALID,22.9657,VALID,351,VALID,0.449219,
2008-11-03, 00:53:04,VALID,1005.78,VALID,0,VALID,95.7501,VALID,0,VALID,22.964,VALID,351,VALID,0.489844,
2008-11-03, 00:54:04,VALID,1005.75,VALID,0,VALID,95.7348,VALID,0,VALID,22.964,VALID,351,VALID,0.379687,
2008-11-03, 00:55:04,VALID,1005.74,VALID,0,VALID,95.7424,VALID,0,VALID,22.964,VALID,351,VALID,0.482812,
2008-11-03, 00:56:04,VALID,1005.73,VALID,0,VALID,95.773,VALID,0,VALID,22.9428,VALID,351,VALID,0.438672,
2008-11-03, 00:57:04,VALID,1005.75,VALID,0,VALID,95.773,VALID,0,VALID,22.9445,VALID,351,VALID,0.411328,
2008-11-03, 00:58:04,VALID,1005.72,VALID,0,VALID,95.773,VALID,0,VALID,22.9233,VALID,351,VALID,0.405859,
2008-11-03, 00:59:04,VALID,1005.69,VALID,0,VALID,95.7882,VALID,0,VALID,22.9657,VALID,351,VALID,0.263281,
2008-11-03, 01:00:04,VALID,1005.7,VALID,0,VALID,95.9103,VALID,0,VALID,22.964,VALID,351,VALID,0.45625,
2008-11-03, 01:01:04,VALID,1005.65,VALID,0,VALID,95.9027,VALID,0.100563,VALID,22.9834,VALID,351,VALID,0.422266,
2008-11-03, 01:02:04,VALID,1005.65,VALID,0,VALID,95.8645,VALID,0,VALID,22.9622,VALID,351,VALID,0.488672,
2008-11-03, 01:03:04,VALID,1005.64,VALID,0,VALID,95.8493,VALID,0.100563,VALID,22.9834,VALID,351,VALID,0.476563,
2008-11-03, 01:04:04,VALID,1005.6,VALID,0,VALID,95.8264,VALID,0,VALID,22.9428,VALID,351,VALID,0.4,
2008-11-03, 01:05:04,VALID,1005.62,VALID,0,VALID,95.8187,VALID,0.100563,VALID,22.9445,VALID,351,VALID,0.357031,
2008-11-03, 01:06:04,VALID,1005.63,VALID,0,VALID,95.8569,VALID,0,VALID,22.9445,VALID,351,VALID,0.437891,
2008-11-03, 01:07:04,VALID,1005.6,VALID,0,VALID,95.8874,VALID,0,VALID,22.9428,VALID,351,VALID,0.391797,
2008-11-03, 01:08:04,VALID,1005.6,VALID,0,VALID,95.8569,VALID,0.100563,VALID,22.9233,VALID,351,VALID,0.483984,
2008-11-03, 01:09:04,VALID,1005.58,VALID,0,VALID,95.8874,VALID,0,VALID,22.9463,VALID,351,VALID,0.594922,
2008-11-03, 01:10:04,VALID,1005.57,VALID,0,VALID,95.9637,VALID,0,VALID,22.964,VALID,351,VALID,0.411719,
2008-11-03, 01:11:04,VALID,1005.59,VALID,0,VALID,95.8569,VALID,0,VALID,22.9463,VALID,351,VALID,0.341797,
2008-11-03, 01:12:04,VALID,1005.59,VALID,0,VALID,95.8645,VALID,0,VALID,22.9251,VALID,351,VALID,0.514844,
2008-11-03, 01:13:04,VALID,1005.58,VALID,0,VALID,95.8645,VALID,0,VALID,22.9268,VALID,351,VALID,0.355078,
2008-11-03, 01:14:04,VALID,1005.57,VALID,0,VALID,95.9332,VALID,0,VALID,22.964,VALID,351,VALID,0.332031,
2008-11-03, 01:15:04,VALID,1005.56,VALID,0,VALID,95.9637,VALID,0,VALID,22.964,VALID,351,VALID,0.338672,
2008-11-03, 01:16:04,VALID,1005.55,VALID,0,VALID,95.895,VALID,0,VALID,22.9852,VALID,351,VALID,0.388672,
2008-11-03, 01:17:04,VALID,1005.53,VALID,0,VALID,95.8645,VALID,0,VALID,22.9463,VALID,351,VALID,0.389453,
2008-11-03, 01:18:04,VALID,1005.5,VALID,0,VALID,95.9103,VALID,0,VALID,22.9852,VALID,351,VALID,0.404687,
2008-11-03, 01:19:04,VALID,1005.5,VALID,0,VALID,95.9027,VALID,0,VALID,22.964,VALID,351,VALID,0.311719,
2008-11-03, 01:20:04,VALID,1005.49,VALID,0,VALID,95.834,VALID,0,VALID,22.9445,VALID,351,VALID,0.196484,
2008-11-03, 01:21:04,VALID,1005.5,VALID,0,VALID,95.8111,VALID,0,VALID,22.9056,VALID,351,VALID,0.158594,
2008-11-03, 01:22:04,VALID,1005.49,VALID,0,VALID,95.8493,VALID,0,VALID,22.9268,VALID,351,VALID,0,
2008-11-03, 01:23:04,VALID,1005.47,VALID,0,VALID,95.7882,VALID,0,VALID,22.8879,VALID,351,VALID,0.294922,
2008-11-03, 01:24:04,VALID,1005.46,VALID,0,VALID,95.7577,VALID,0,VALID,22.8667,VALID,351,VALID,0.357031,
2008-11-03, 01:25:04,VALID,1005.44,VALID,0,VALID,95.7806,VALID,0,VALID,22.8472,VALID,351,VALID,0.484766,
2008-11-03, 01:26:04,VALID,1005.43,VALID,0,VALID,95.7577,VALID,0.100563,VALID,22.7871,VALID,351,VALID,0.462109,
2008-11-03, 01:27:04,VALID,1005.4,VALID,0,VALID,95.7653,VALID,0,VALID,22.8083,VALID,351,VALID,0.438281,
2008-11-03, 01:28:04,VALID,1005.41,VALID,0,VALID,95.8111,VALID,0,VALID,22.7871,VALID,351,VALID,0.339844,
2008-11-03, 01:29:04,VALID,1005.4,VALID,0,VALID,95.9255,VALID,0.100563,VALID,22.8278,VALID,351,VALID,0.322266,
2008-11-03, 01:30:04,VALID,1005.41,VALID,0,VALID,96.04,VALID,0.100563,VALID,22.8861,VALID,351,VALID,0.460938,
2008-11-03, 01:31:04,VALID,1005.38,VALID,0,VALID,95.9866,VALID,0,VALID,22.8861,VALID,351,VALID,0.505078,
2008-11-03, 01:32:04,VALID,1005.4,VALID,0,VALID,95.9332,VALID,0.100563,VALID,22.8649,VALID,351,VALID,0.471484,
2008-11-03, 01:33:04,VALID,1005.39,VALID,0,VALID,95.9332,VALID,0.100563,VALID,22.8649,VALID,351,VALID,0.469531,
2008-11-03, 01:34:04,VALID,1005.39,VALID,0,VALID,95.8798,VALID,0.100563,VALID,22.8667,VALID,351,VALID,0.497656,
2008-11-03, 01:35:04,VALID,1005.34,VALID,0,VALID,95.9408,VALID,0,VALID,22.8667,VALID,351,VALID,0.675391,
2008-11-03, 01:36:04,VALID,1005.38,VALID,0,VALID,95.9103,VALID,0.100563,VALID,22.8278,VALID,351,VALID,0.445313,
2008-11-03, 01:37:04,VALID,1005.4,VALID,0,VALID,95.8874,VALID,0.100563,VALID,22.8066,VALID,351,VALID,0.371484,
2008-11-03, 01:38:04,VALID,1005.33,VALID,0,VALID,95.9103,VALID,0.100563,VALID,22.8066,VALID,351,VALID,0.507422,
2008-11-03, 01:39:04,VALID,1005.33,VALID,0,VALID,95.9332,VALID,0,VALID,22.81,VALID,351,VALID,0.335547,
2008-11-03, 01:40:04,VALID,1005.34,VALID,0,VALID,95.9332,VALID,0,VALID,22.8083,VALID,351,VALID,0.267188,
2008-11-03, 01:41:04,VALID,1005.35,VALID,0,VALID,95.9484,VALID,0,VALID,22.8083,VALID,351,VALID,0.283594,
2008-11-03, 01:42:04,VALID,1005.31,VALID,0,VALID,96.0171,VALID,0,VALID,22.8472,VALID,351,VALID,0.247266,
2008-11-03, 01:43:04,VALID,1005.34,VALID,0,VALID,96.04,VALID,0,VALID,22.8879,VALID,351,VALID,0.325,
2008-11-03, 01:44:04,VALID,1005.29,VALID,0,VALID,96.0629,VALID,0,VALID,22.9056,VALID,351,VALID,0.0121094,
2008-11-03, 01:45:04,VALID,1005.31,VALID,0,VALID,96.0552,VALID,0,VALID,22.9463,VALID,351,VALID,0.1375,
2008-11-03, 01:46:04,VALID,1005.26,VALID,0,VALID,96.0934,VALID,0,VALID,22.9834,VALID,351,VALID,0,
2008-11-03, 01:47:04,VALID,1005.26,VALID,0,VALID,95.9713,VALID,0,VALID,22.9463,VALID,351,VALID,0,
2008-11-03, 01:48:04,VALID,1005.29,VALID,0,VALID,95.9179,VALID,0,VALID,22.9268,VALID,351,VALID,0,
2008-11-03, 01:49:04,VALID,1005.28,VALID,0,VALID,95.895,VALID,0,VALID,22.8684,VALID,351,VALID,0.430469,
2008-11-03, 01:50:04,VALID,1005.27,VALID,0,VALID,95.8264,VALID,0,VALID,22.8083,VALID,351,VALID,0.516797,
2008-11-03, 01:51:04,VALID,1005.27,VALID,0,VALID,95.8035,VALID,0,VALID,22.7694,VALID,351,VALID,0.365234,
2008-11-03, 01:52:04,VALID,1005.22,VALID,0,VALID,95.8569,VALID,0,VALID,22.7711,VALID,351,VALID,0.355859,
2008-11-03, 01:53:04,VALID,1005.23,VALID,0,VALID,95.9408,VALID,0,VALID,22.7694,VALID,350,VALID,0.438672,
2008-11-03, 01:54:04,VALID,1005.24,VALID,0,VALID,96.0857,VALID,0,VALID,22.8472,VALID,350,VALID,0.514453,
2008-11-03, 01:55:04,VALID,1005.22,VALID,0,VALID,96.0934,VALID,0,VALID,22.9073,VALID,350,VALID,0.469531,
2008-11-03, 01:56:04,VALID,1005.18,VALID,0,VALID,96.1163,VALID,0,VALID,22.9251,VALID,350,VALID,0.498828,
2008-11-03, 01:57:04,VALID,1005.19,VALID,0,VALID,96.101,VALID,0,VALID,22.9445,VALID,350,VALID,0.489453,
2008-11-03, 01:58:04,VALID,1005.19,VALID,0,VALID,96.0476,VALID,0,VALID,22.9445,VALID,350,VALID,0.418359,
2008-11-03, 01:59:04,VALID,1005.2,VALID,0,VALID,95.9637,VALID,0,VALID,22.9251,VALID,350,VALID,0.416016,
2008-11-03, 02:00:04,VALID,1005.2,VALID,0,VALID,95.9713,VALID,0,VALID,22.9056,VALID,350,VALID,0.533984,
2008-11-03, 02:01:04,VALID,1005.2,VALID,0,VALID,95.9408,VALID,0,VALID,22.8667,VALID,350,VALID,0.44375,
2008-11-03, 02:02:04,VALID,1005.18,VALID,0,VALID,95.9027,VALID,0,VALID,22.8278,VALID,350,VALID,0.417969,
2008-11-03, 02:03:04,VALID,1005.17,VALID,0,VALID,95.8798,VALID,0,VALID,22.8489,VALID,350,VALID,0.294141,
2008-11-03, 02:04:04,VALID,1005.17,VALID,0,VALID,95.8798,VALID,0,VALID,22.81,VALID,350,VALID,0.276563,
2008-11-03, 02:05:04,VALID,1005.15,VALID,0,VALID,95.9255,VALID,0,VALID,22.81,VALID,350,VALID,0.377734,
2008-11-03, 02:06:04,VALID,1005.14,VALID,0,VALID,95.9637,VALID,0,VALID,22.7888,VALID,350,VALID,0.267188,
2008-11-03, 02:07:04,VALID,1005.12,VALID,0,VALID,95.9713,VALID,0,VALID,22.81,VALID,350,VALID,0.313672,
2008-11-03, 02:08:04,VALID,1005.12,VALID,0,VALID,95.9332,VALID,0,VALID,22.7906,VALID,350,VALID,0.357031,
2008-11-03, 02:09:04,VALID,1005.11,VALID,0,VALID,95.8874,VALID,0,VALID,22.7711,VALID,350,VALID,0.218359,
2008-11-03, 02:10:04,VALID,1005.11,VALID,0,VALID,95.8721,VALID,0,VALID,22.7322,VALID,350,VALID,0.314453,
2008-11-03, 02:11:04,VALID,1005.1,VALID,0,VALID,95.8569,VALID,0,VALID,22.6721,VALID,350,VALID,0.363672,
2008-11-03, 02:12:04,VALID,1005.12,VALID,0,VALID,95.895,VALID,0,VALID,22.6933,VALID,350,VALID,0.362891,
2008-11-03, 02:13:04,VALID,1005.1,VALID,0,VALID,95.9255,VALID,0,VALID,22.6721,VALID,350,VALID,0.312891,
2008-11-03, 02:14:04,VALID,1005.11,VALID,0,VALID,95.9027,VALID,0,VALID,22.6933,VALID,350,VALID,0.397266,
2008-11-03, 02:15:04,VALID,1005.08,VALID,0,VALID,95.895,VALID,0,VALID,22.6543,VALID,350,VALID,0.415625,
2008-11-03, 02:16:04,VALID,1005.07,VALID,0,VALID,95.895,VALID,0,VALID,22.6137,VALID,350,VALID,0.508203,
2008-11-03, 02:17:04,VALID,1005.05,VALID,0,VALID,95.9637,VALID,0,VALID,22.6137,VALID,350,VALID,0.417578,
2008-11-03, 02:18:04,VALID,1005.03,VALID,0,VALID,96.1086,VALID,0,VALID,22.6933,VALID,350,VALID,0.431641,
2008-11-03, 02:19:04,VALID,1005.03,VALID,0,VALID,96.1239,VALID,0,VALID,22.711,VALID,350,VALID,0.328516,
2008-11-03, 02:20:04,VALID,1005.03,VALID,0,VALID,96.1086,VALID,0,VALID,22.7305,VALID,350,VALID,0.298047,
2008-11-03, 02:21:04,VALID,1005.02,VALID,0,VALID,96.0629,VALID,0,VALID,22.711,VALID,350,VALID,0.204297,
2008-11-03, 02:22:04,VALID,1005.01,VALID,0,VALID,96.0095,VALID,0,VALID,22.7127,VALID,350,VALID,0.145313,
2008-11-03, 02:23:04,VALID,1004.99,VALID,0,VALID,96.0018,VALID,0,VALID,22.6721,VALID,350,VALID,0.384375,
2008-11-03, 02:24:04,VALID,1004.94,VALID,0,VALID,96.0476,VALID,0,VALID,22.7127,VALID,350,VALID,0.431641,
2008-11-03, 02:25:04,VALID,1004.95,VALID,0,VALID,96.0705,VALID,0,VALID,22.711,VALID,350,VALID,0.469922,
2008-11-03, 02:26:04,VALID,1004.96,VALID,0,VALID,96.04,VALID,0,VALID,22.6915,VALID,350,VALID,0.420703,
2008-11-03, 02:27:04,VALID,1004.95,VALID,0,VALID,96.0323,VALID,0,VALID,22.7127,VALID,350,VALID,0.451562,
2008-11-03, 02:28:04,VALID,1004.95,VALID,0,VALID,96.0705,VALID,0,VALID,22.6915,VALID,350,VALID,0.507031,
2008-11-03, 02:29:04,VALID,1004.92,VALID,0,VALID,96.1163,VALID,0.100563,VALID,22.7322,VALID,350,VALID,0.572266,
2008-11-03, 02:30:04,VALID,1004.9,VALID,0,VALID,96.0934,VALID,0,VALID,22.711,VALID,350,VALID,0.518359,
2008-11-03, 02:31:04,VALID,1004.88,VALID,0,VALID,96.0629,VALID,0,VALID,22.7322,VALID,350,VALID,0.376563,
2008-11-03, 02:32:04,VALID,1004.85,VALID,0,VALID,96.1468,VALID,0,VALID,22.7305,VALID,350,VALID,0.282031,
2008-11-03, 02:33:04,VALID,1004.85,VALID,0,VALID,96.162,VALID,0,VALID,22.7906,VALID,350,VALID,0.246484,
2008-11-03, 02:34:04,VALID,1004.81,VALID,0,VALID,96.1468,VALID,0,VALID,22.7482,VALID,350,VALID,0.355859,
2008-11-03, 02:35:04,VALID,1004.78,VALID,0,VALID,96.0857,VALID,0,VALID,22.7516,VALID,350,VALID,0.322656,
2008-11-03, 02:36:04,VALID,1004.77,VALID,0,VALID,96.0705,VALID,0,VALID,22.7305,VALID,350,VALID,0.302344,
2008-11-03, 02:37:04,VALID,1004.75,VALID,0,VALID,96.0781,VALID,0,VALID,22.7516,VALID,350,VALID,0.298047,
2008-11-03, 02:38:04,VALID,1004.76,VALID,0,VALID,96.1773,VALID,0,VALID,22.7906,VALID,350,VALID,0.279687,
2008-11-03, 02:39:04,VALID,1004.76,VALID,0,VALID,96.1163,VALID,0,VALID,22.7694,VALID,350,VALID,0.299609,
2008-11-03, 02:40:04,VALID,1004.73,VALID,0,VALID,96.1773,VALID,0,VALID,22.7516,VALID,350,VALID,0.256641,
2008-11-03, 02:41:04,VALID,1004.72,VALID,0,VALID,96.1773,VALID,0,VALID,22.7305,VALID,350,VALID,0.253516,
2008-11-03, 02:42:04,VALID,1004.72,VALID,0,VALID,96.1468,VALID,0,VALID,22.7322,VALID,350,VALID,0,
2008-11-03, 02:43:04,VALID,1004.69,VALID,0,VALID,96.1544,VALID,0,VALID,22.6915,VALID,350,VALID,0,
2008-11-03, 02:44:04,VALID,1004.7,VALID,0,VALID,96.1163,VALID,0,VALID,22.6915,VALID,350,VALID,0,
2008-11-03, 02:45:04,VALID,1004.69,VALID,0,VALID,96.1163,VALID,0,VALID,22.6721,VALID,350,VALID,0,
2008-11-03, 02:46:04,VALID,1004.67,VALID,0,VALID,96.1468,VALID,0,VALID,22.6933,VALID,350,VALID,0,
2008-11-03, 02:47:04,VALID,1004.66,VALID,0,VALID,96.101,VALID,0,VALID,22.6332,VALID,350,VALID,0,
2008-11-03, 02:48:04,VALID,1004.65,VALID,0,VALID,96.0552,VALID,0,VALID,22.596,VALID,350,VALID,0,
2008-11-03, 02:49:04,VALID,1004.65,VALID,0,VALID,96.04,VALID,0,VALID,22.5553,VALID,350,VALID,0,
2008-11-03, 02:50:04,VALID,1004.66,VALID,0,VALID,96.1239,VALID,0,VALID,22.557,VALID,350,VALID,0,
2008-11-03, 02:51:04,VALID,1004.64,VALID,0,VALID,96.246,VALID,0,VALID,22.596,VALID,350,VALID,0,
2008-11-03, 02:52:04,VALID,1004.63,VALID,0,VALID,96.2078,VALID,0,VALID,22.6137,VALID,350,VALID,0,
2008-11-03, 02:53:04,VALID,1004.62,VALID,0,VALID,96.1086,VALID,0,VALID,22.5553,VALID,350,VALID,0,
2008-11-03, 02:54:04,VALID,1004.64,VALID,0,VALID,96.0934,VALID,0,VALID,22.557,VALID,350,VALID,0,
2008-11-03, 02:55:04,VALID,1004.62,VALID,0,VALID,96.2002,VALID,0,VALID,22.5765,VALID,350,VALID,0.504297,
2008-11-03, 02:56:04,VALID,1004.6,VALID,0,VALID,96.1773,VALID,0,VALID,22.5553,VALID,350,VALID,0.367969,
2008-11-03, 02:57:04,VALID,1004.58,VALID,0,VALID,96.1392,VALID,0,VALID,22.5359,VALID,350,VALID,0.164453,
2008-11-03, 02:58:04,VALID,1004.57,VALID,0,VALID,96.1544,VALID,0,VALID,22.557,VALID,350,VALID,0.143359,
2008-11-03, 02:59:04,VALID,1004.56,VALID,0,VALID,96.1392,VALID,0,VALID,22.497,VALID,350,VALID,0.00195313,
2008-11-03, 03:00:04,VALID,1004.55,VALID,0,VALID,96.1392,VALID,0,VALID,22.497,VALID,350,VALID,0,
2008-11-03, 03:01:04,VALID,1004.53,VALID,0,VALID,96.2154,VALID,0,VALID,22.5164,VALID,350,VALID,0,
2008-11-03, 03:02:04,VALID,1004.53,VALID,0,VALID,96.1926,VALID,0,VALID,22.5181,VALID,350,VALID,0,
2008-11-03, 03:03:04,VALID,1004.51,VALID,0,VALID,96.2231,VALID,0,VALID,22.5164,VALID,350,VALID,0,
2008-11-03, 03:04:04,VALID,1004.5,VALID,0,VALID,96.2078,VALID,0,VALID,22.5376,VALID,350,VALID,0,
2008-11-03, 03:05:04,VALID,1004.48,VALID,0,VALID,96.2383,VALID,0,VALID,22.5164,VALID,350,VALID,0,
2008-11-03, 03:06:04,VALID,1004.5,VALID,0,VALID,96.2612,VALID,0,VALID,22.5765,VALID,350,VALID,0,
2008-11-03, 03:07:04,VALID,1004.46,VALID,0,VALID,96.2765,VALID,0,VALID,22.5553,VALID,350,VALID,0,
2008-11-03, 03:08:04,VALID,1004.47,VALID,0,VALID,96.307,VALID,0,VALID,22.596,VALID,350,VALID,0,
2008-11-03, 03:09:04,VALID,1004.48,VALID,0,VALID,96.3604,VALID,0,VALID,22.6933,VALID,350,VALID,0,
2008-11-03, 03:10:04,VALID,1004.49,VALID,0,VALID,96.3833,VALID,0,VALID,22.7305,VALID,350,VALID,0,
2008-11-03, 03:11:04,VALID,1004.5,VALID,0,VALID,96.4062,VALID,0,VALID,22.7888,VALID,350,VALID,0,
2008-11-03, 03:12:04,VALID,1004.49,VALID,0,VALID,96.3756,VALID,0,VALID,22.81,VALID,350,VALID,0,
2008-11-03, 03:13:04,VALID,1004.5,VALID,0,VALID,96.3375,VALID,0,VALID,22.7127,VALID,350,VALID,0,
2008-11-03, 03:14:04,VALID,1004.49,VALID,0,VALID,96.1544,VALID,0,VALID,22.6332,VALID,350,VALID,0,
2008-11-03, 03:15:04,VALID,1004.48,VALID,0,VALID,96.162,VALID,0,VALID,22.5942,VALID,350,VALID,0,
2008-11-03, 03:16:04,VALID,1004.46,VALID,0,VALID,96.1926,VALID,0,VALID,22.5942,VALID,350,VALID,0,
2008-11-03, 03:17:04,VALID,1004.45,VALID,0,VALID,96.1773,VALID,0,VALID,22.5942,VALID,350,VALID,0.486719,
2008-11-03, 03:18:04,VALID,1004.44,VALID,0,VALID,96.1697,VALID,0.100563,VALID,22.5553,VALID,350,VALID,0.460938,
2008-11-03, 03:19:04,VALID,1004.46,VALID,0,VALID,96.162,VALID,0,VALID,22.5164,VALID,350,VALID,0.436719,
2008-11-03, 03:20:04,VALID,1004.46,VALID,0,VALID,96.2078,VALID,0,VALID,22.5359,VALID,350,VALID,0.3875,
2008-11-03, 03:21:04,VALID,1004.47,VALID,0,VALID,96.3146,VALID,0,VALID,22.5748,VALID,350,VALID,0.4125,
2008-11-03, 03:22:04,VALID,1004.47,VALID,0,VALID,96.3222,VALID,0,VALID,22.5942,VALID,350,VALID,0.448047,
2008-11-03, 03:23:04,VALID,1004.5,VALID,0,VALID,96.3146,VALID,0,VALID,22.6349,VALID,350,VALID,0.380469,
2008-11-03, 03:24:04,VALID,1004.49,VALID,0,VALID,96.3146,VALID,0.100563,VALID,22.6137,VALID,350,VALID,0.423047,
2008-11-03, 03:25:04,VALID,1004.54,VALID,0,VALID,96.2688,VALID,0,VALID,22.5942,VALID,350,VALID,0.483594,
2008-11-03, 03:26:04,VALID,1004.51,VALID,0,VALID,96.2994,VALID,0,VALID,22.6137,VALID,350,VALID,0.396875,
2008-11-03, 03:27:04,VALID,1004.55,VALID,0,VALID,96.307,VALID,0,VALID,22.6543,VALID,350,VALID,0.336328,
2008-11-03, 03:28:04,VALID,1004.55,VALID,0,VALID,96.2917,VALID,0.100563,VALID,22.6315,VALID,349,VALID,0.521875,
2008-11-03, 03:29:04,VALID,1004.55,VALID,0,VALID,96.2688,VALID,0,VALID,22.6332,VALID,349,VALID,0.305469,
2008-11-03, 03:30:04,VALID,1004.56,VALID,0,VALID,96.2383,VALID,0,VALID,22.6349,VALID,349,VALID,0.308594,
2008-11-03, 03:31:04,VALID,1004.58,VALID,0,VALID,96.2383,VALID,0,VALID,22.6137,VALID,349,VALID,0.218359,
2008-11-03, 03:32:04,VALID,1004.58,VALID,0,VALID,96.2688,VALID,0,VALID,22.5942,VALID,349,VALID,0.227344,
2008-11-03, 03:33:04,VALID,1004.6,VALID,0,VALID,96.2231,VALID,0,VALID,22.5942,VALID,349,VALID,0.314453,
2008-11-03, 03:34:04,VALID,1004.61,VALID,0,VALID,96.2383,VALID,0,VALID,22.5748,VALID,349,VALID,0.347266,
2008-11-03, 03:35:04,VALID,1004.63,VALID,0,VALID,96.307,VALID,0,VALID,22.6154,VALID,349,VALID,0.369922,
2008-11-03, 03:36:04,VALID,1004.64,VALID,0,VALID,96.3146,VALID,0,VALID,22.6332,VALID,349,VALID,0.371484,
2008-11-03, 03:37:04,VALID,1004.67,VALID,0,VALID,96.307,VALID,0,VALID,22.6526,VALID,349,VALID,0.407813,
2008-11-03, 03:38:04,VALID,1004.69,VALID,0,VALID,96.2841,VALID,0,VALID,22.6315,VALID,349,VALID,0.441016,
2008-11-03, 03:39:04,VALID,1004.7,VALID,0,VALID,96.2841,VALID,0,VALID,22.6332,VALID,349,VALID,0.262891,
2008-11-03, 03:40:04,VALID,1004.7,VALID,0,VALID,96.2765,VALID,0,VALID,22.6332,VALID,349,VALID,0.366016,
2008-11-03, 03:41:04,VALID,1004.69,VALID,0,VALID,96.2841,VALID,0,VALID,22.6137,VALID,349,VALID,0.365625,
2008-11-03, 03:42:04,VALID,1004.69,VALID,0,VALID,96.2536,VALID,0,VALID,22.5942,VALID,349,VALID,0.473437,
2008-11-03, 03:43:04,VALID,1004.68,VALID,0,VALID,96.2994,VALID,0,VALID,22.6154,VALID,349,VALID,0.425781,
2008-11-03, 03:44:04,VALID,1004.66,VALID,0,VALID,96.307,VALID,0,VALID,22.6137,VALID,349,VALID,0.382813,
2008-11-03, 03:45:04,VALID,1004.68,VALID,0,VALID,96.307,VALID,0,VALID,22.6137,VALID,349,VALID,0.395312,
2008-11-03, 03:46:04,VALID,1004.64,VALID,0,VALID,96.3222,VALID,0,VALID,22.6332,VALID,349,VALID,0.372656,